Location: Church of God
(46.7283°N, 116.9983°W)
Time: 08:26:39
(UTC+00:00)

Cosmos 2026 Rocket - Visible Passes

Search period start: 09 June 2026 00:00
Search period end: 19 June 2026 00:00
Orbit: 939 x 999 km, 82.9° (Epoch: 8 June)

Date Brightness Start Highest point End Pass type
(mag) Time Alt. Az. Time Alt. Az. Time Alt. Az.
9 Jun 5.8 04:20:09 10° NNW 04:25:33 31° W 04:30:54 10° SW visible
10 Jun 6.4 04:44:20 10° NW 04:48:30 19° W 04:52:38 10° WSW visible
11 Jun 7.0 05:10:11 10° WNW 05:11:17 10° WNW 05:12:23 10° W visible
14 Jun 6.7 04:33:21 10° NW 04:36:24 14° WNW 04:39:24 10° WSW visible
18 Jun 7.2 04:24:11 10° WNW 04:24:14 10° WNW 04:24:18 10° WNW visible
